Precipitable_Water
1.65 1.68 1.63 1.60 1.60 1.51 1.53 1.51 1.55 1.50 1.64 1.67 1.71 1.61 1.53 1.51 1.51 1.48 1.48 1.56 1.62 1.60
1.64 1.63 1.57 1.60 1.62 1.59 1.60 1.59 1.61 1.70 1.59 1.62 1.65 1.68 1.65 1.53 1.48 1.49 1.48 1.59 1.67 1.59
1.56 1.64 1.59 1.74 1.70 1.60 1.79 1.62 1.66 1.62 1.70 1.66 1.71 1.67 1.64 1.57 1.53 1.47 1.51 1.55 1.75 1.69
1.44 1.57 1.58 1.60 1.62 1.64 1.72 1.76 1.78 1.75 1.77 1.72 1.76 1.72 1.60 1.57 1.57 1.51 1.52 1.60 1.65 1.73
1.39 1.46 1.46 1.53 1.51 1.66 1.63 1.72 1.74 1.70 1.79 1.81 1.79 1.74 1.65 1.57 1.63 1.57 1.54 1.55 1.53 1.67
1.29 1.37 1.39 1.40 1.37 1.44 1.48 1.48 1.60 1.60 1.65 1.74 1.74 1.65 1.65 1.59 1.54 1.60 1.64 1.62 1.62 1.62
1.36 1.28 1.31 1.39 1.42 1.39 1.42 1.46 1.51 1.63 1.62 1.67 1.72 1.71 1.71 1.62 1.53 1.52 1.59 1.62 1.62 1.65
1.56 1.57 1.55 1.54 1.57 1.52 1.49 1.47 1.50 1.53 1.61 1.63 1.66 1.66 1.63 1.64 1.61 1.59 1.55 1.56 1.59 1.62
1.61 1.64 1.63 1.66 1.66 1.71 1.72 1.70 1.71 1.56 1.52 1.59 1.64 1.67 1.69 1.68 1.66 1.64 1.58 1.55 1.60 1.61
1.66 1.70 1.73 1.74 1.76 1.76 1.79 1.84 1.86 1.86 1.83 1.63 1.67 1.68 1.71 1.79 1.81 1.75 1.71 1.67 1.66 1.67
1.58 1.63 1.65 1.65 1.63 1.75 1.88 1.92 1.99 2.01 1.98 1.86 1.87 1.87 1.80 1.83 1.90 1.86 1.84 1.81 1.81 1.79
1.40 1.43 1.54 1.56 1.62 1.75 1.86 1.88 1.84 1.85 1.95 1.98 1.92 2.00 1.98 2.01 1.96 1.91 1.88 1.92 1.96 1.97
1.58 1.56 1.46 1.52 1.61 1.71 1.75 1.76 1.87 1.88 1.94 1.98 1.94 2.02 2.00 1.95 1.92 1.80 1.78 1.82 1.80 1.81
1.50 1.51 1.56 1.50 1.53 1.54 1.56 1.53 1.53 1.60 1.60 1.56 1.57 1.67 1.78 1.75 1.70 1.58 1.42 1.40 1.44 1.55
Wind_Speed
18 18 17 18 16 16 16 16 15 15 14 13 12 10 10 9 9 8 8 7 6 6
18 19 18 18 16 16 16 16 16 15 14 14 13 12 11 11 10 9 9 8 7 7
18 19 19 18 17 16 16 17 17 17 16 15 15 13 12 12 11 10 9 9 8 7
17 19 20 20 18 17 16 16 17 17 17 17 16 15 14 13 13 12 12 11 10 10
18 20 21 21 20 19 19 18 19 18 18 18 18 16 16 15 14 14 13 13 13 12
19 20 21 22 22 21 21 20 19 20 20 20 20 18 18 17 17 16 16 15 14 14
19 20 20 21 21 22 22 22 22 21 22 21 21 20 19 19 19 18 18 18 17 17
20 20 20 20 20 20 21 22 22 23 22 22 22 22 21 21 20 20 19 20 20 20
21 22 21 20 20 21 21 21 21 22 24 24 23 23 22 21 21 21 21 21 21 21
22 22 21 22 21 22 24 24 23 23 24 25 24 23 23 22 22 22 22 22 23 22
23 23 23 22 22 22 23 25 25 24 25 26 24 24 24 23 23 23 23 24 24 25
24 24 24 23 23 23 24 23 24 25 27 24 24 24 25 24 24 24 25 25 26 26
26 25 25 25 24 23 23 23 21 21 22 22 22 22 23 24 24 24 24 24 25 25
26 27 26 25 23 23 22 21 20 19 19 20 21 21 21 21 22 22 22 22 23 23
Wind_Direction
213 211 213 211 211 211 214 215 211 212 213 213 214 217 217 217 218 219 218 223 228 228
213 211 211 209 215 214 214 213 212 214 215 216 218 218 218 221 221 222 225 232 229 226
214 211 209 213 214 217 221 215 218 221 223 224 224 225 225 225 226 228 231 231 229 227
215 214 215 216 220 220 217 218 223 226 227 225 226 228 229 230 232 234 235 234 231 239
219 218 218 221 225 227 227 229 230 231 228 227 228 230 233 235 235 237 237 238 238 240
221 223 224 226 229 231 231 233 234 232 230 230 231 235 236 237 240 241 242 243 242 244
224 224 225 228 230 233 234 235 234 233 232 233 234 236 239 240 243 245 245 246 247 248
225 225 228 230 232 231 233 234 234 233 234 235 236 239 241 243 244 247 249 249 249 250
228 228 231 233 234 233 234 234 235 234 234 236 238 239 241 244 246 249 251 252 253 254
231 230 233 235 237 239 237 237 238 238 239 238 239 240 242 245 248 251 253 254 255 257
233 234 236 238 240 242 240 240 242 244 244 242 241 240 243 247 251 253 255 256 258 258
235 236 237 239 243 244 245 246 251 252 243 240 239 242 245 248 253 255 258 260 260 261
239 240 239 240 242 245 246 248 249 247 241 242 242 245 248 250 253 255 258 261 262 262
238 241 242 240 241 241 242 242 245 246 244 245 246 248 249 249 251 255 260 262 263 263